This is the latest recevied weather packets stored in our database for station/object S51UL-6. If no packets are shown the sender has not sent any weather packets the latest 10 day(s).
| Time | Temp. | Humidity | Pressure | Rain* | Wind** | Luminosity | Snow |
|---|---|---|---|---|---|---|---|
| 1788152522 | 13.33° C | 88% | 1015.9 hPa | 5.08 mm | - | - | - |
| 1788152217 | 13.33° C | 88% | 1016.2 hPa | 5.08 mm | - | - | - |
| 1788151917 | 13.33° C | 88% | 1016.1 hPa | 6.6 mm | - | - | - |
| 1788151617 | 13.33° C | 88% | 1015.9 hPa | 6.1 mm | - | - | - |
| 1788151317 | 13.33° C | 88% | 1016.1 hPa | 6.1 mm | - | - | - |
| 1788151018 | 13.33° C | 88% | 1016.1 hPa | 6.1 mm | - | - | - |
| 1788150717 | 13.33° C | 88% | 1016 hPa | 5.59 mm | - | - | - |
| 1788150117 | 13.33° C | 88% | 1016.1 hPa | 4.06 mm | - | - | - |
| 1788149817 | 13.33° C | 88% | 1016.2 hPa | 3.05 mm | - | - | - |
| 1788149518 | 13.33° C | 88% | 1016.1 hPa | 3.05 mm | - | - | - |
| 1788149217 | 13.33° C | 88% | 1015.9 hPa | 3.05 mm | - | - | - |
| 1788148920 | 13.33° C | 88% | 1016.1 hPa | 3.05 mm | - | - | - |
| 1788148318 | 13.33° C | 88% | 1016.1 hPa | 0.51 mm | - | - | - |
| 1788148017 | 13.33° C | 88% | 1016 hPa | 0 mm | - | - | - |
| 1788147717 | 13.33° C | 88% | 1016 hPa | 0 mm | - | - | - |
| 1788147118 | 13.33° C | 87% | 1016.1 hPa | 0 mm | - | - | - |
| 1788146818 | 13.89° C | 88% | 1016.1 hPa | 0 mm | - | - | - |
| 1788146518 | 13.89° C | 88% | 1016.1 hPa | 0 mm | - | - | - |
| 1788146219 | 13.89° C | 88% | 1016.3 hPa | 0 mm | - | - | - |
| 1788145918 | 13.89° C | 87% | 1016.2 hPa | 0 mm | - | - | - |
| 1788145619 | 13.89° C | 87% | 1016.2 hPa | 0 mm | - | - | - |
| 1788144718 | 13.89° C | 87% | 1016.2 hPa | 0 mm | - | - | - |
| 1788144418 | 13.89° C | 87% | 1016.2 hPa | 0 mm | - | - | - |
| 1788144223 | 13.89° C | 87% | 1016.2 hPa | 0 mm | - | - | - |
| 1788144119 | 13.89° C | 87% | 1016.2 hPa | 0 mm | - | - | - |
* Rain latest hour (hover to see other rain measurements)
** Current wind speed in m/s (hover to see current wind gust speed)